Weather History for Garden City, KS

Change the Weather History Date:

Saturday, March 29, 2014

  Actual Average Record
Temperature  
Mean Temperature 47 °F 47 °F  
Max Temperature 70 °F 62 °F 85 °F (1967)
Min Temperature 23 °F 33 °F 7 °F (1987)
Degree Days  
Heating Degree Days 18 18  
Month to date heating degree days 728 629  
Since 1 July heating degree days 4904 4653  
Cooling Degree Days 0 0  
Month to date cooling degree days 0 0  
Year to date cooling degree days 0 0  
Moisture  
Dew Point 22 °F    
Average Humidity 48    
Maximum Humidity 81    
Minimum Humidity 15    
Precipitation  
Precipitation 0.00 in 0.06 in 0.39 in (1989)
Month to date precipitation 0.04 1.34  
Year to date precipitation 0.20 2.22  
Sea Level Pressure  
Sea Level Pressure 30.16 in    
Wind  
Wind Speed 14 mph (SW)    
Max Wind Speed 32 mph    
Max Gust Speed 40 mph    
Visibility 10 miles    
Events      
T = Trace of Precipitation, MM = Missing Value Source: NWS Daily Summary

Daily Weather History Graph

Daily Weather History Graph

Search for Another Location

Airport:

Trip Planner

Search our weather history database for the weather conditions in past years. The results will help you decide how hot, cold, wet, or windy it might be!

Date:

Astronomy

Mar. 29, 2014 Rise Set
Actual Time 7:32 AM CDT 8:03 PM CDT
Civil Twilight 7:06 AM CDT 8:29 PM CDT
Nautical Twilight 6:35 AM CDT 9:00 PM CDT
Astronomical Twilight 6:03 AM CDT 9:32 PM CDT
Moon 6:41 AM CDT (3/29) 7:10 PM CDT (3/29)
Length of Visible Light 13h 23m
Length of Day
12h 30m
Waning Crescent, 2% of the Moon is Illuminated
Mar 29
Waning Crescent
Mar 30
New
Apr 7
First Quarter
Apr 15
Full
Apr 22
Last Quarter

Hourly Weather History & Observations

Time (CDT) Temp. Windchill Dew Point Humidity Pressure Visibility Wind Dir Wind Speed Gust Speed Precip Events Conditions
12:54 AM 39.9 °F 32.5 °F 21.0 °F 47% 30.21 in 10.0 mi NE 12.7 mph - N/A   Clear
1:54 AM 37.0 °F 30.4 °F 23.0 °F 57% 30.23 in 10.0 mi NNE 9.2 mph - N/A   Clear
2:54 AM 32.0 °F 25.6 °F 21.9 °F 66% 30.25 in 10.0 mi North 6.9 mph - N/A   Clear
3:54 AM 28.9 °F 21.9 °F 21.0 °F 72% 30.25 in 10.0 mi NNW 6.9 mph - N/A   Clear
4:54 AM 28.0 °F 20.0 °F 21.0 °F 75% 30.25 in 10.0 mi NNW 8.1 mph - N/A   Clear
5:54 AM 25.0 °F 16.3 °F 19.0 °F 78% 30.27 in 10.0 mi NW 8.1 mph - N/A   Clear
6:54 AM 23.0 °F 15.8 °F 18.0 °F 81% 30.29 in 10.0 mi NW 5.8 mph - N/A   Clear
7:54 AM 25.0 °F 19.3 °F 19.9 °F 81% 30.32 in 10.0 mi West 4.6 mph - N/A   Clear
8:54 AM 32.0 °F - 24.1 °F 73% 30.32 in 10.0 mi Calm Calm - N/A   Clear
9:54 AM 39.9 °F 35.8 °F 26.1 °F 58% 30.30 in 10.0 mi SSW 5.8 mph - N/A   Clear
10:54 AM 48.9 °F - 27.0 °F 43% 30.29 in 10.0 mi SSW 11.5 mph - N/A   Clear
11:54 AM 57.0 °F - 25.0 °F 29% 30.25 in 10.0 mi SSW 13.8 mph - N/A   Clear
12:54 PM 62.1 °F - 21.9 °F 21% 30.21 in 10.0 mi SSW 17.3 mph 26.5 mph N/A   Clear
1:54 PM 64.0 °F - 19.9 °F 18% 30.18 in 10.0 mi SSW 18.4 mph 28.8 mph N/A   Clear
2:54 PM 68.0 °F - 19.9 °F 16% 30.13 in 10.0 mi SSW 23.0 mph 33.4 mph N/A   Clear
3:54 PM 69.1 °F - 21.0 °F 16% 30.09 in 10.0 mi SSW 21.9 mph 35.7 mph N/A   Clear
4:54 PM 70.0 °F - 21.9 °F 16% 30.06 in 10.0 mi SSW 23.0 mph 31.1 mph N/A   Clear
5:54 PM 69.1 °F - 19.9 °F 15% 30.03 in 10.0 mi SSW 26.5 mph 36.8 mph N/A   Clear
6:54 PM 68.0 °F - 21.9 °F 17% 30.03 in 10.0 mi South 19.6 mph - N/A   Clear
7:54 PM 64.0 °F - 21.9 °F 20% 30.02 in 10.0 mi South 16.1 mph - N/A   Clear
8:54 PM 57.9 °F - 23.0 °F 26% 30.01 in 10.0 mi South 12.7 mph - N/A   Clear
9:54 PM 55.9 °F - 23.0 °F 28% 30.01 in 10.0 mi SE 11.5 mph - N/A   Clear
10:54 PM 55.0 °F - 23.0 °F 29% 29.99 in 10.0 mi South 18.4 mph - N/A   Clear
11:54 PM 55.0 °F - 21.9 °F 28% 29.96 in 10.0 mi South 19.6 mph 27.6 mph N/A   Clear